一网星座-0255星 (ONEWEB-0255 )

导读

ONEWEB-0255是一颗由英国发射的卫星,于2021年7月1日升空。它隶属于OneWeb星座系统,该星座旨在构建全球低轨卫星通信网络,为全球不同地区提供高速宽带互联网接入服务,尤其覆盖偏远、基础设施匮乏区域,填补地面通信网络盲区,助力全球互联实现。发射后,它进入预定轨道,承担起卫星通信节点的功能。

基本信息
目录编号:
48973
目录名称:
ONEWEB-0255
国际标识:
2021-060G
轨道中心:
EARTH
卫星名称:
一网星座-0255星
卫星全名:
一网星座-0255星 (ONEWEB-0255 )
卫星状态:
在轨 (已飞行1852 天)
发射日期:
2021-07-01 UTC
国别 :
英国 (GB)
星等 :
--
轨道信息
数据来源 国际轨道数据 AOE轨道数据
星历时间 2026-07-27T10:16:13+0800
20小时前
查看轨道信息
2026-07-26T09:00:00+0800
1天前
查看轨道信息
半长轴 7575.894km 7575.902km
偏心率 0.0002233 0.0002687
轨道倾角 87.907° 87.908°
近地点辐角 94.408° 85.292°
升交点赤经 220.852° 221.062°
平近点角 265.730° 327.099°
近地点 1196.065km 1195.729km
远地点 1199.449km 1199.801km
周期 109.373分钟 109.373分钟
每日圈数 13.165944 13.165922
详细信息
平衡模式:
三轴稳定
覆盖范围:
全球
运营商:
一网卫星公司
运营商所在国:
英国
制造商(研发单位):
一网卫星公司
制造商所在国:
英国
使用方式:
暂无
卫星简介
OneWeb卫星网络由648颗重约125公斤的微型卫星组成,运行在1200公里的轨道上。 每颗卫星都能够提供至少每秒8千兆位的吞吐量,以使用其高吞吐量的Ku频段有效载荷为家庭和移动平台提供互联网接入。该卫星仍在工作。
2D轨道图
3D轨道图
轨道高度分析图
轨道倾角分析图
轨道综合分析图
查看轨道综合分析图